Location: Carlisle
(34.5501°N, 84.5969°W)
Time: 01:48:39
(UTC+00:00)

Tiangong - Visible Passes

Search period start: 27 November 2022 00:00
Search period end: 07 December 2022 00:00
Orbit: 387 x 394 km, 41.5° (Epoch: 26 November)

Date Brightness Start Highest point End Pass type
(mag) Time Alt. Az. Time Alt. Az. Time Alt. Az.
28 Nov -0.1 00:28:49 10° WSW 00:30:29 28° WSW 00:30:29 28° WSW visible
28 Nov -1.5 23:31:14 10° SW 23:34:16 42° SSE 23:35:37 26° E visible
30 Nov -1.4 00:10:14 10° W 00:13:00 49° NW 00:13:00 49° NW visible
30 Nov -2.2 23:12:18 10° WSW 23:15:29 90° NNW 23:17:57 16° ENE visible
01 Dec 1.2 00:49:56 10° WNW 00:50:17 12° WNW 00:50:17 12° WNW visible
01 Dec -1.0 23:51:44 10° W 23:54:40 33° NNW 23:55:10 31° N visible
02 Dec -1.5 22:53:33 10° W 22:56:39 48° NNW 22:59:46 10° ENE visible
03 Dec 0.6 00:31:25 10° WNW 00:32:19 15° NW 00:32:19 15° NW visible
03 Dec -0.6 23:33:10 10° WNW 23:35:54 25° N 23:37:07 20° NNE visible
05 Dec 0.0 00:12:38 10° NW 00:14:12 19° NNW 00:14:12 19° NNW visible
05 Dec -0.5 23:14:25 10° WNW 23:17:02 22° N 23:18:57 14° NE visible
06 Dec -0.7 23:53:33 10° NW 23:56:02 25° N 23:56:02 25° N visible
